759  
ASUS43 KLSX 181257  
RWRMO  
 
WEATHER SUMMARY FOR MISSOURI  
NATIONAL WEATHER SERVICE SPRINGFIELD MO  
800 AM CDT MON OCT 18 2021  
 
NOTE: "FAIR" INDICATES FEW OR NO CLOUDS BELOW 12,000 FEET WITH NO  
SIGNIFICANT WEATHER AND/OR S TO VISIBILITY
.  
CURRENT SKY AND/OR WEATHER CONDITIONS ARE NOT AVAILABLE FOR  
CHILLICOTHE AND FARMINGTON.  
 
MOZ001>031-035>038-043-044-053-054-181400-   
..NORTHERN AND WESTERN MISSOURI
 
 
 
CITY SKY/WX TMP DP RH WIND PRES REMARKS
 
KANSAS CTY INT CLEAR 46 41 82 S7 30.09S  
LEE'S SUMMIT CLEAR 49 43 80 S5 30.12R  
ST JOSEPH FOG 39 39 100 CALM 30.08S VSB 1/4  
CHILLICOTHE N/A 44 41 89 CALM 30.12R  
 

 
MOZ066>068-077>081-088>096-101>105-181400-   
..SOUTHWEST MISSOURI
 
 
 
CITY SKY/WX TMP DP RH WIND PRES REMARKS
 
SPRINGFIELD CLEAR 47 44 90 S8 30.18R  
JOPLIN CLEAR 49 42 77 S6 30.16S  
 

 
MOZ032>034-039>042-045>050-055>058-069>072-181400-   
..CENTRAL MISSOURI
 
 
 
CITY SKY/WX TMP DP RH WIND PRES REMARKS
 
COLUMBIA NOT AVBL  
JEFFERSON CITY CLEAR 46 41 82 SE5 30.17R  
ROLLA CLEAR 50 43 77 SW9 30.18S  
SEDALIA CLEAR 52 44 74 SW10 30.14R  
WARRENSBURG CLEAR 46 43 87 S5 30.13S  
 

 
MOZ051-052-059>065-181400-   
..EAST CENTRAL MISSOURI
 
 
 
CITY SKY/WX TMP DP RH WIND PRES REMARKS
 
ST LOUIS INTL CLEAR 54 41 61 SW3 30.17S  
ST CHARLES CLEAR 43 40 89 E3 30.17R  
 

 
MOZ072>076-082>087-097>100-106>115-181400-   
..SOUTH CENTRAL AND SOUTHEAST MISSOURI
 
 
 
CITY SKY/WX TMP DP RH WIND PRES REMARKS
 
CAPE GIRARDEAU CLEAR 42 41 96 CALM 30.22S FOG  
POPLAR BLUFF CLEAR 43 42 97 CALM 30.22R  
WEST PLAINS CLEAR 44 41 89 CALM 30.21R  
 

 
 
 
CLICK HERE TO GO TO PREVIOUS BULLETINS.

The Nexlab MO Page Main Text Page